Regional Weather Roundup
Issued by NWS

Home | Current Version | Previous Version | Text Only | Print | Product List | Glossary On
Versions: 1 2 3 4 5 6 7 8 9 10 11 12 13 14 15 16 17 18 19 20 21 22 23 24 25 26 27 28 29 30 31 32 33 34 35 36 37 38 39 40 41 42 43 44 45 46 47 48 49 50
000
ASUS43 KMPX 211210
RWRMN
WEATHER ROUNDUP FOR MINNESOTA
NATIONAL WEATHER SERVICE TWIN CITIES/CHANHASSEN MN
700 AM CDT FRI JUL 21 2017


NOTE: "FAIR" INDICATES FEW OR NO CLOUDS BELOW 12,000 FEET WITH NO
SIGNIFICANT WEATHER AND/OR OBSTRUCTIONS TO VISIBILITY. N/A MEANS
CURRENT SKY AND/OR WEATHER CONDITIONS ARE NOT AVAILABLE.

MNZ060>063-068>070-211300-
   Twin Cities Metro

CITY           SKY/WX    TMP DP  RH WIND       PRES   REMARKS
TWIN CITIES    MOSUNNY   72  66  81 SE12      29.90R
6HR MIN TEMP:  69; 6HR MAX TEMP:  75;

ST PAUL        MOSUNNY   69  69 100 SE5       29.90F
CRYSTAL        MOSUNNY   69  65  86 E5        29.88F
BLAINE         MOSUNNY   70  70 100 CALM      29.89F
LAKEVILLE      CLOUDY    64  64 100 E5        29.90R FOG
EDEN PRAIRIE   MOSUNNY   71  68  90 E7        29.88S
6HR MIN TEMP:  68; 6HR MAX TEMP:  71;

SOUTH ST PAUL  SUNNY     69  68  96 S3        29.90S
LAKE ELMO      FAIR      66  66 100 E3        29.91F FOG
$$
MNZ001>005-007-008-013>017-022>024-027-028-211300-
   Northwest Minnesota

CITY           SKY/WX    TMP DP  RH WIND       PRES   REMARKS
BEMIDJI        CLOUDY    66  61  84 E5        29.90F
HALLOCK        CLOUDY    68  61  77 E12       29.82F
ROSEAU         CLOUDY    64  57  77 E6        29.89F
WARROAD        MOSUNNY   64  59  82 SE8       29.91F
THIEF RVR FALL CLOUDY    67  60  78 E8        29.86F
CROOKSTON      PTCLDY    70  64  83 E9        29.83F
FOSSTON        CLOUDY    64  59  82 E3        29.87F
DETROIT LAKES  MOCLDY    72  66  83 SE8       29.85F
MOORHEAD       CLOUDY    72  68  88 E6        29.80F
PARK RAPIDS    CLOUDY    70  65  84 E6        29.88F
MAHNOMEN       FAIR      71  66  84 SE7       29.84F
$$
MNZ006-009>011-018-025>026-211300-
   North Central Minnesota

CITY           SKY/WX    TMP DP  RH WIND       PRES   REMARKS
BAUDETTE       MOSUNNY   61  56  83 E7        29.92F
FLAG ISLAND    CLOUDY    66  63  88 CALM      29.90F HAZE
INTL FALLS     PTSUNNY   60  55  83 CALM      29.94F
6HR MIN TEMP:  51; 6HR MAX TEMP:  60; 6HR PCP:  0.09;

WASKISH        CLOUDY    63  54  72 E6        29.92S
BIG FORK       CLOUDY    61  57  88 CALM      29.95S
LONGVILLE      MOSUNNY   63  63 100 CALM      29.90F FOG
GRAND RAPIDS   CLOUDY    64  61  90 E3        29.94F
CRANE LAKE     MOSUNNY   55  55 100 CALM      29.98F
ORR            CLOUDY    57  54  88 CALM      29.93F
COOK           CLOUDY    59  57  94 CALM      29.96F
WALKER         FAIR      66  65  97 CALM      29.89F
$$
MNZ012-019>021-037-211300-
   Northeast Minnesota

CITY           SKY/WX    TMP DP  RH WIND       PRES   REMARKS
DULUTH         CLOUDY    64  61  90 CALM      29.94F
6HR MIN TEMP:  61; 6HR MAX TEMP:  66;

ELY            CLOUDY    57  55  94 CALM      29.98S
HIBBING        CLOUDY    58  58 100 CALM      29.96R
EVELETH        CLOUDY    60  57  90 CALM      29.98R
DULUTH HARBOR  CLOUDY    66  63  88 NE7       29.93F
TWO HARBORS    CLOUDY    66  61  82 CALM      29.92F
SILVER BAY     CLOUDY    61  57  88 CALM      29.94R
GRAND MARAIS     N/A     62  56  80 CALM      29.94F
G MARAIS ARPRT CLOUDY    57  50  77 CALM      30.00S
$$
MNZ029>031-032-039>041-046>048-054>057-064-211300-
   West Central Minnesota

CITY           SKY/WX    TMP DP  RH WIND       PRES   REMARKS
FERGUS FALLS   CLOUDY    73  68  83 SE10      29.80F
WHEATON        CLOUDY    72  68  88 SE12      29.86R FOG
MORRIS         PTCLDY    73  70  88 SE9       29.84R
ALEXANDRIA     CLOUDY    69  68  96 E9        29.90R FOG
ELBOW LAKE     FAIR      70  69  95 SE13      29.85F
WADENA         CLOUDY    66  66 100 CALM      29.85F
GLENWOOD       CLEAR     66  66 100 SE7       29.91R FOG
APPLETON       PTCLDY    72  68  88 SE8       29.85R
BENSON         PTCLDY    73  68  83 SE8       29.89R
ORTONVILLE     MOCLDY    70  66  88 E5        29.85R FOG
MADISON        CLOUDY    72  72 100 S5        29.88R FOG
WILLMAR        FAIR      72  70  94 SE9       29.90R
$$
MNZ033>034-036-042>043-049>051-058-059-211300-
   Central Minnesota

CITY           SKY/WX    TMP DP  RH WIND       PRES   REMARKS
ST CLOUD       SUNNY     66  66 100 E6        29.89F FOG
6HR MIN TEMP:  61; 6HR MAX TEMP:  66;

SAUK CENTRE    FAIR      68  67  95 E5        29.91R
PAYNESVILLE    SUNNY     70  68  93 SE6       29.91R
AITKIN         FOG       63  61  94 CALM      29.90F VSB<1/4
PINE RIVER     CLOUDY    66  66 100 CALM      29.92F FOG
BRAINERD       MOSUNNY   66  64  93 CALM      29.88F FOG
STAPLES        CLOUDY    68  64  88 CALM      29.87R
LONG PRAIRIE   FAIR      64  63  94 NE7       29.91R
LITTLE FALLS   PTSUNNY   64  63  94 E3        29.89F FOG
LITCHFIELD     PTSUNNY   70  70 100 SE8       29.92R
BUFFALO        SUNNY     67  65  91 CALM      29.91R
MAPLE LAKE     SUNNY     68  68  99 E6        29.91R
HUTCHINSON     CLOUDY    68  68  98 E6        29.90R
$$
MNZ037-044-045-052-053-211300-
   East Central Minnesota

CITY           SKY/WX    TMP DP  RH WIND       PRES   REMARKS
PRINCETON      SUNNY     66  64  94 CALM      29.89F FOG
MORA             N/A     63  63 100 CALM      29.93S FOG
CAMBRIDGE      SUNNY     66  63  88 CALM      29.89S FOG
RUSH CITY      SUNNY     64  62  96 CALM      29.91F FOG
MOOSE LAKE     CLOUDY    63  61  94 CALM      29.91F FOG
HINCKLEY       FAIR      61  61 100 N3        29.93S FOG
CLOQUET        CLOUDY    64  61  88 CALM      29.94F
MCGREGOR       MOSUNNY   63  63 100 CALM      29.93F
$$
MNZ071>073-080-081-089-090-097-098-211300-
   Southwest Minnesota

CITY           SKY/WX    TMP DP  RH WIND       PRES   REMARKS
MONTEVIDEO     CLOUDY    70  70 100 S6        29.88R
GRANITE FALLS  CLOUDY    73  70  93 SE7       29.90R
CANBY          CLOUDY    69  68  97 CALM      29.89R FOG
MARSHALL       TSTM      68  66  93 S13G35    29.92R FOG
REDWOOD FALLS  CLOUDY    72  69  90 S8        29.88R
OLIVIA         CLOUDY    70  66  88 SE8       29.88R
PIPESTONE      CLOUDY    73  70  88 E5        29.90R
WINDOM         CLOUDY    73  70  88 SE7       29.91R
WORTHINGTON    CLOUDY    71  70  96 E7        29.91R
JACKSON        CLOUDY    72  70  94 CALM      29.92R
SLAYTON        CLOUDY    72  68  88 N6        29.94R
$$
MNZ065>067-074>077-082>085-091>093-211300-
   South Central Minnesota

CITY           SKY/WX    TMP DP  RH WIND       PRES   REMARKS
MANKATO        CLOUDY    71  68  90 S3        29.91R
NEW ULM        CLOUDY    72  68  88 SE6       29.87R
ST JAMES       TSTM      70  68  94 SE20G28   29.87F
FAIRMONT       TSTM      73  72  94 CALM      29.92R FOG
GLENCOE        PTSUNNY   69  69 100 E7        29.89R
FARIBAULT      CLOUDY    70  66  88 E7        29.90R
OWATONNA       CLOUDY    70  66  88 SE7       29.90R
WASECA         CLOUDY    70  68  94 CALM      29.92R THUNDER
ALBERT LEA     CLOUDY    72  70  94 SE7       29.89R
$$
MNZ078>079-086>088-094>096-211300-
   Southeast Minnesota

CITY           SKY/WX    TMP DP  RH WIND       PRES   REMARKS
ROCHESTER      CLOUDY    69  67  93 SE13      29.92F
6HR MIN TEMP:  63; 6HR MAX TEMP:  69; 6HR PCP: TRACE;

RED WING       SUNNY     66  64  94 CALM      29.90R FOG
STANTON        CLOUDY    69  67  95 NE5       29.89R
DODGE CENTER   MOSUNNY   70  66  88 SE9       29.92R
WINONA         CLOUDY    70  68  94 SE7       29.92S FOG
AUSTIN         CLOUDY    72  66  83 SE5       29.91R
PRESTON        CLOUDY    66  64  91 SE9       29.94R
$$
ABBREVIATIONS USED IN REMARKS
   TC - TEMPERATURES IN CELSIUS
  WCI - WIND CHILL INDEX
   HX - HEAT INDEX
  VSB - VISIBILITY
$$




USA.gov is the U.S. government's official web portal to all federal, state and local government web resources and services.